Location: Munkebjergskolens Observatorium
(55.3864°N, 10.3987°E)
Time: 09:12:59
(UTC+02:00)

JY1SAT - Pass Details

Date: 07 April 2023
Orbit: 555 x 574 km, 97.6° (Epoch: 03 June)

Event Time Altitude Azimuth Distance (km) Brightness Sun altitude
Exits shadow 22:01:57 27° 145° (SE) 1,096 ? -15.4°
Maximum altitude 22:04:00 65° 72° (ENE) 630 ? -15.6°
Drops below altitude 10° 22:08:03 10° 350° (N) 1,887 ? -16.1°
Sets 22:10:13 0° 348° (NNW) 2,793 ? -16.3°
